Location: ???????
(55.7027°N, 37.3832°E)
Time: 07:24:29
(UTC+00:00)

Cosmos 2233 Rocket - Pass Details

Date: 14 April 2026
Orbit: 951 x 991 km, 82.9° (Epoch: 13 May)

Event Time Altitude Azimuth Distance (km) Brightness Sun altitude
Exits shadow 21:53:31 55° 188° (S) 1,179 4.0 -24.5°
Maximum altitude 21:55:04 89° 105° (ESE) 994 3.9 -24.4°
Drops below altitude 10° 22:01:24 10° 12° (NNE) 2,743 7.4 -24.3°
Sets 22:03:54 0° 12° (NNE) 3,689 8.4 -24.3°
